{"data":{"norad_id":66227,"intl_designator":"2025-244X","name":"STARLINK-34882","alt_names":[],"object_type":"PAYLOAD","status":"ACTIVE","operator":null,"country":"US","launch_date":"2025-10-28","launch_site_code":"AFWTR","launch_vehicle":null,"mission":null,"orbit_class":"UNKNOWN","rcs_meters":null,"size_class":null,"mass_kg":null,"dimensions":null,"purposes":["comms"],"wikipedia_slug":null,"has_3d_model":false,"image_url":null,"decayed_at":null,"tle_current":{"epoch":"2026-09-19T23:26:01.919040Z","epoch_age_seconds":141953,"freshness":"FRESH","line1":"1 66227U 25244X   26262.97641110  .00025046  00000+0  74877-3 0  9999","line2":"2 66227  53.1604  44.0673 0001326  50.2569 309.8551 15.34448904 51455","mean_motion":15.34448904,"eccentricity":0.0001326,"inclination_deg":53.1604,"raan_deg":44.0673,"arg_perigee_deg":50.2569,"mean_anomaly_deg":309.8551,"bstar":0.00074877,"rev_number":5145,"period_min":93.844767085187,"perigee_km":461.65081493093,"apogee_km":463.46496721604,"semimajor_km":6840.6948910735,"source":"CELESTRAK","updated_at":"2026-09-21T09:00:35.844059Z"}}}